Location: Chapel Hill
(35.9134°N, 79.0560°W)
Time: 06:49:59
(UTC-05:00)

Courier 1B - Visible Passes

Search period start: 15 February 2026 00:00
Search period end: 25 February 2026 00:00
Orbit: 962 x 1208 km, 28.3° (Epoch: 15 February)

Date Brightness Start Highest point End Pass type
(mag) Time Alt. Az. Time Alt. Az. Time Alt. Az.
15 Feb 8.8 20:01:45 10° SW 20:08:04 30° SSE 20:08:17 30° SSE visible
15 Feb 10.2 21:54:32 10° WSW 21:55:11 13° WSW 21:55:11 13° WSW visible
16 Feb 9.1 19:08:33 10° SSW 19:14:15 25° SSE 19:17:54 17° ESE visible
16 Feb 9.1 21:00:47 10° WSW 21:04:47 31° SW 21:04:47 31° SW visible
17 Feb 8.4 20:07:11 10° SW 20:13:55 39° SSE 20:14:22 39° SSE visible
17 Feb 10.2 22:00:30 10° WSW 22:01:16 13° WSW 22:01:16 13° WSW visible
18 Feb 8.7 19:13:42 10° SW 19:20:03 34° SSE 19:23:57 21° ESE visible
18 Feb 9.0 21:06:40 10° WSW 21:10:50 33° SW 21:10:50 33° SW visible
19 Feb 9.0 18:20:26 10° SW 18:26:15 28° SSE 18:32:22 10° ESE visible
19 Feb 8.2 20:12:57 10° WSW 20:19:50 46° S 20:20:22 45° SSE visible
19 Feb 10.2 22:06:36 10° WSW 22:07:15 13° WSW 22:07:15 13° WSW visible
20 Feb 8.4 19:19:19 10° WSW 19:25:57 42° SSE 19:29:54 24° ESE visible
20 Feb 9.1 21:12:44 10° WSW 21:16:46 32° SW 21:16:46 32° SW visible
21 Feb 8.7 18:25:49 10° SW 18:32:06 37° SSE 18:38:46 10° E visible
21 Feb 8.2 20:18:56 10° WSW 20:25:49 48° S 20:26:17 47° SSE visible
21 Feb 10.3 22:12:51 10° W 22:13:10 11° WSW 22:13:10 11° WSW visible
22 Feb 8.3 19:25:13 10° WSW 19:31:55 46° S 19:35:47 26° ESE visible
22 Feb 9.2 21:18:54 10° WSW 21:22:41 29° WSW 21:22:41 29° WSW visible
23 Feb 8.4 18:31:35 10° WSW 18:38:03 43° S 18:44:55 10° ESE visible
23 Feb 8.3 20:25:04 10° WSW 20:31:48 45° S 20:32:11 44° S visible
24 Feb 8.3 19:31:17 10° WSW 19:37:55 46° S 19:41:42 26° SE visible
24 Feb 9.4 21:25:16 10° WSW 21:28:36 24° WSW 21:28:36 24° WSW visible
